Regional Weather Roundup
Issued by NWS

Home | Current Version | Previous Version | Graphics & Text | Print | Product List | Glossary On
Versions: 1 2 3 4 5 6 7 8 9 10 11 12 13 14 15 16 17 18 19 20 21 22 23 24 25 26 27 28 29 30 31 32 33 34 35 36 37 38 39 40 41 42 43 44 45 46 47 48 49 50
000
ASUS43 KLOT 251912
RWRIL

ILLINOIS REGIONAL WEATHER ROUNDUP
NATIONAL WEATHER SERVICE CHICAGO/ROMEOVILLE IL
200 PM CDT SAT APR 25 2015

NOTE: "FAIR" INDICATES FEW OR NO CLOUDS BELOW 12,000 FEET WITH NO
SIGNIFICANT WEATHER AND/OR OBSTRUCTIONS TO VISIBILITY.

* THESE STATIONS ARE NOT UNDER NWS QUALITY CONTROL. THEY ALSO MAY NOT
  REPORT WEATHER SUCH AS PRECIPITATION OR FOG.

ILZ001-002-007-009-015-016-024-252000-
NORTHWEST ILLINOIS

CITY           SKY/WX    TMP DP  RH WIND       PRES   REMARKS
MOLINE         CLOUDY    49  44  83 E13G28    29.63R
STERLING*      CLOUDY    48  43  81 NE23G33   29.66F
SAVANNA*       PTSUNNY   52  43  71 NE26G32   29.69F
$$

ILZ003-004-008-010-011-017-018-252000-
NORTH CENTRAL ILLINOIS

CITY           SKY/WX    TMP DP  RH WIND       PRES   REMARKS
ROCKFORD       CLOUDY    47  40  76 E15       29.77F
FREEPORT*      CLOUDY    46  40  81 NE23      29.76F
ROCHELLE*      DRIZZLE   46  43  91 NE22G28   29.72F
DE KALB*       LGT RAIN  43  41  92 NE18G28   29.74F
PERU*          CLOUDY    47  45  95 E26G37    29.63F
$$

ILZ005-006-012>014-019>023-252000-
NORTHEAST ILLINOIS

CITY           SKY/WX    TMP DP  RH WIND       PRES   REMARKS
CHICAGO-OHARE  LGT RAIN  44  40  85 NE14      29.77F FOG
CHICAGO-MIDWAY LGT RAIN  46  42  86 NE13      29.77F FOG
AURORA         LGT RAIN  46  41  82 NE22G29   29.72F
LANSING*       LGT RAIN  44  41  91 NE13      29.75F
JOLIET*        DRIZZLE   46  44  92 NE13G20   29.71F
WAUKEGAN       CLOUDY    42  38  85 NE10      29.81S
DUPAGE AIRPORT LGT RAIN  45  42  89 NE15      29.74F FOG
KANKAKEE*      CLOUDY    46  44  94 NE20G26   29.68S
WHEELING       LGT RAIN  43  40  89 NE9       29.80F
MORRIS*        LGT RAIN  46  43  90 E17G25    29.65F
ROMEOVILLE*    LGT RAIN  44  42  93 E18G24    29.71F
NORTHERLY ISL    N/A     43  39  86 NE14        N/A
$$

LMZ740>746-252000-
SOUTHERN LAKE MICHIGAN

STATION/POSITION SKY/WX   TEMP    WIND        PRES    VSBY  WAVE
                          AIR SEA DIR/SP/G                  HT/PER
                          (F)     (DEG/KT/KT) (MB)    (MI)  (FT/S)
HARRISON CRIB              41      70/ 10/ 11   N/A
BURNHAM HARBOR             43      60/ 11/ 13   N/A
CALUMET HARBOR             43      50/  7/ 10   N/A
BURNS HARBOR               45      20/  4/  7 1009.1R
MICHIGAN CITY              45      80/ 10/ 14   N/A
MICHIGAN CITY 6N           45 45  120/ 12/ 17   N/A           2/ 4
$$

ILZ025>027-034>036-040-047-049-050-058-095>099-252000-
WEST-CENTRAL ILLINOIS

CITY           SKY/WX    TMP DP  RH WIND       PRES   REMARKS
QUINCY         CLOUDY    55  51  86 E10       29.54R
GALESBURG*     CLOUDY    47  45  92 E15G22    29.61F
MACOMB*        CLOUDY    51  49  92 E15       29.60S
JACKSONVILLE*  CLOUDY    58  54  85 E16       29.53F
PITTSFIELD*    CLOUDY    54  52  94 NE8       29.54S
$$

ILZ028>032-037-038-041>044-048-051>054-059>061-252000-
CENTRAL ILLINOIS

CITY           SKY/WX    TMP DP  RH WIND       PRES   REMARKS
PONTIAC        CLOUDY    48  46  94 E22       29.66R
BLOOMINGTON    CLOUDY    49  47  93 E22G30    29.61F
DECATUR        CLOUDY    53  49  86 E21       29.57S
PEORIA         CLOUDY    49  44  83 E14G24    29.61R
LACON*         CLOUDY    46  43  90 E16G23    29.63R
LINCOLN*       CLOUDY    55  51  85 E15G23    29.56S
SPRINGFIELD    CLOUDY    56  50  80 E17G23    29.56S
TAYLORVILLE    CLOUDY    52  50  93 E14       29.55S
$$

ILZ033-039-045-046-055>057-062-063-252000-
EAST-CENTRAL ILLINOIS

CITY           SKY/WX    TMP DP  RH WIND       PRES   REMARKS
CHAMPAIGN      CLOUDY    51  50  96 E23G29    29.58F
DANVILLE*      CLOUDY    47  45  91 E15G23    29.60F
RANTOUL*       CLOUDY    50  47  90 E21G26    29.60F
MATTOON        CLOUDY    51  49  92 NE18      29.56S FOG
PARIS*         CLOUDY    49  49  99 NE12G18   29.61F FOG
$$

ILZ079-100>102-252000-
SOUTHWEST ILLINOIS

CITY           SKY/WX    TMP DP  RH WIND       PRES   REMARKS
BELLEVILLE     RAIN      64  64  99 S2        29.48R FOG
CAHOKIA*       LGT RAIN  65  60  84 CALM      29.48R
SPARTA*        PTSUNNY   69  59  71 SE8       29.47F
$$

ILZ064>066-069>071-074>076-080>082-084>086-088>090-092>094-252000-
SOUTH-CENTRAL ILLINOIS

CITY           SKY/WX    TMP DP  RH WIND       PRES   REMARKS
CARBONDALE     PTSUNNY   73  60  63 W9        29.49S
CAIRO*         PTSUNNY   74  62  65 S14G23    29.51S
EFFINGHAM*     DRIZZLE   54  52  94 NE8       29.55S
MT. VERNON     CLOUDY    66  55  68 SW7       29.52S
CENTRALIA*     PTSUNNY   73  56  55 SW7       29.49F
SALEM*         CLOUDY    68  58  71 SW8       29.51R
METROPOLIS*    PTSUNNY   75  61  61 SW14G22   29.50F
$$

ILZ067-068-072-073-078-083-087-091-252000-
SOUTHEAST ILLINOIS

CITY           SKY/WX    TMP DP  RH WIND       PRES   REMARKS
LAWRENCEVILLE  CLOUDY    56  55  97 NE13      29.55S FOG
FLORA*         PTSUNNY   62  58  86 CALM      29.52S
FAIRFIELD*     CLOUDY    68  60  74 W5        29.49F
HARRISBURG*    PTSUNNY   73  60  63 W14       29.51S
ROBINSON*      DRIZZLE   53  53  97 NE12      29.57R
CARMI*         MOSUNNY   71  55  55 W13G21    29.50S
$$

ABBREVIATIONS USED IN REMARKS
   TC - TEMPERATURE IN CELSIUS
  WCI - WIND CHILL INDEX
   HX - HEAT INDEX
  VSB - VISIBILITY
$$




USA.gov is the U.S. government's official web portal to all federal, state and local government web resources and services.